Simultaneous Nadir Overpasses (SNOs) Predictions

Prediction of SNOs between LANDSAT-8 and NOAA-19 Satellite Orbit:

Table of predicted SNOs for the next 14.0 days since TLE Epoch: 1/31/2014
Index Date (LANDSAT-8) Time (LANDSAT-8) Lat,Lon (LANDSAT-8) SZA (LANDSAT-8 ) Date (NOAA-19) Time (NOAA-19) Lat,Lon (NOAA-19) SZA (NOAA-19 ) Distance(km) Time Diff (sec)
1 01/31/2014 19:14:29 -71.54, 70.10 91.27 01/31/2014 19:13:43 -71.54, 70.07 91.26 1.28 46
2 01/31/2014 20:03:57 71.41,-122.48 88.60 01/31/2014 20:04:49 71.42,-122.49 88.60 1.35 52
3 02/02/2014 23:58:45 -71.53, -0.99 91.91 02/02/2014 23:57:47 -71.56, -0.95 91.88 3.07 58
4 02/03/2014 00:48:12 71.45, 166.52 88.00 02/03/2014 00:48:53 71.45, 166.47 88.00 1.75 41
5 02/05/2014 04:43:00 -71.56, -72.02 92.54 02/05/2014 04:41:51 -71.58, -71.99 92.51 2.65 69
6 02/05/2014 05:32:27 71.47, 95.48 87.37 02/05/2014 05:32:57 71.49, 95.40 87.39 3.29 30
7 02/07/2014 09:27:12 -71.73,-142.80 93.05 02/07/2014 09:25:59 -71.81,-143.42 92.94 23.51 73
8 02/07/2014 10:16:42 71.48, 24.42 86.70 02/07/2014 10:17:00 71.48, 24.41 86.71 0.93 18
9 02/09/2014 14:11:19 -72.15, 146.86 93.34 02/09/2014 14:10:10 -72.20, 144.83 93.22 69.41 69
10 02/09/2014 15:00:56 71.52, -46.58 86.05 02/09/2014 15:01:03 71.49, -46.59 86.02 2.81 7
11 02/09/2014 15:50:38 -70.74, 119.83 94.71 02/09/2014 15:51:45 -70.73, 122.02 94.79 80.26 67
12 02/11/2014 19:45:10 71.54,-117.60 85.35 02/11/2014 19:45:06 71.51,-117.62 85.33 3.27 4
13 02/11/2014 20:34:45 -71.15, 49.39 95.04 02/11/2014 20:35:56 -71.13, 50.33 95.09 33.57 71
14 02/14/2014 00:29:24 71.55, 171.34 84.62 02/14/2014 00:29:09 71.54, 171.34 84.62 0.61 15




NCC Satellite Simultaneous Nadir Overpasses (SNOs) Prediction Service
